Lid_Strength_Index
0 2 7 6 11 11 14 12 12 12 12 7 6 9 10 9 10 13 2 1 0 0 -0 -1 -1 -1 -1 -1 -2 -2 -1 -1 -1 -1 -1 -1 -1 -1 -2 -2 -2 -2 -2 -2 -2 -2 -2 -1 -1
1 2 5 9 13 16 15 11 13 12 11 7 7 7 9 11 9 4 5 2 0 -0 -0 -0 -1 -1 -1 -1 -1 -2 -1 -1 -1 -1 -1 -1 -1 -1 -2 -2 -2 -2 -2 -2 -1 -2 -1 -1 -1
3 3 8 13 16 17 15 10 13 13 11 8 9 9 11 12 10 8 6 1 0 -0 -1 -1 -1 -1 -1 -1 -1 -1 -1 -1 -1 -1 -1 -2 -1 -1 -1 -1 -2 -2 -2 -2 -2 -1 -1 -1 -1
7 7 9 14 17 16 15 14 13 13 12 10 9 12 11 9 10 9 7 0 0 0 -1 -0 -1 -1 -1 -1 -1 -1 -1 -1 -1 -1 -1 -1 -1 -1 -2 -2 -2 -2 -2 -2 -2 -1 -1 -1 -1
6 9 13 16 16 15 15 13 13 14 14 13 10 10 10 9 8 8 7 0 1 0 -0 -0 -1 -2 -1 -1 -1 -1 -1 -1 -1 -1 -1 -2 -2 -1 -1 -1 -2 -2 -2 -2 -2 -2 -1 -1 -1
9 10 15 17 16 14 14 13 13 12 11 11 10 9 10 9 9 8 8 1 -0 0 -0 -0 0 -0 -1 -1 -1 -1 -1 -1 -1 -2 -1 -2 -1 -1 -1 -2 -2 -2 -2 -2 -2 -1 -1 -1 -1
10 13 15 16 15 15 13 12 13 12 12 11 10 12 10 8 7 8 7 6 5 2 2 -0 -0 -0 1 -0 -0 -1 -1 -1 -1 -1 -1 -1 -1 -1 -1 -1 -2 -2 -2 -2 -2 -1 -1 -1 -1
9 12 14 15 15 16 13 13 13 12 12 10 10 12 12 8 6 5 5 5 5 5 5 1 -0 -0 -0 -0 1 0 -0 -0 -1 -0 0 0 0 -0 -0 -0 -2 -2 -2 -2 -2 -1 -1 -1 -1
9 14 16 16 15 15 13 13 12 11 12 11 10 10 9 7 6 6 6 5 5 4 6 6 0 -0 -0 -0 0 1 1 1 1 1 2 2 -0 -0 0 -0 -1 -2 -2 -2 -1 -1 -1 -2 -1
11 14 15 13 14 14 12 11 12 11 11 11 11 9 7 7 7 7 7 6 6 6 5 5 3 2 -0 -0 -0 -0 -0 -0 -0 0 0 1 1 0 -0 1 0 -1 -1 -2 -1 -1 -1 -1 1
13 15 13 12 11 11 11 11 10 12 12 12 12 10 8 8 7 7 7 6 6 5 4 4 3 5 3 -0 0 0 -0 -0 0 0 0 0 1 1 1 2 1 1 1 1 0 0 1 1 2
14 12 12 10 10 11 12 11 12 12 12 10 9 8 8 8 8 7 7 6 6 5 4 3 3 3 4 3 0 1 0 -0 0 1 0 1 2 2 2 2 1 1 1 1 1 1 1 1 1
14 13 11 11 10 11 10 11 12 12 11 9 8 8 9 8 8 7 6 6 6 6 5 4 3 3 2 3 3 0 1 -0 -0 1 0 -0 1 2 2 2 2 2 2 2 2 2 2 2 2
13 12 12 11 11 11 11 12 11 12 11 10 9 10 9 8 7 7 6 6 6 6 6 5 4 3 2 2 4 3 1 -0 -0 0 0 -0 0 2 2 2 2 2 2 1 2 2 2 2 2
12 14 13 12 12 12 11 13 13 12 10 11 11 10 9 7 6 7 6 6 6 6 5 5 5 4 4 3 2 4 2 0 -0 0 0 -0 0 2 1 2 2 2 1 2 2 2 2 3 2
14 15 17 14 12 11 12 16 12 11 11 12 11 11 9 7 7 7 6 6 6 6 6 5 4 5 5 4 3 2 3 -0 0 0 0 0 0 1 2 2 3 2 2 2 2 3 3 3 3
16 18 17 15 12 12 13 16 12 11 12 12 12 11 9 8 7 7 6 6 6 6 5 5 4 5 5 5 4 3 2 2 0 -0 1 0 0 1 2 2 2 2 2 2 2 3 3 3 3
18 18 17 17 14 14 14 15 13 12 12 12 13 12 10 9 8 7 6 6 6 6 5 5 5 4 4 4 4 3 3 1 -0 1 1 0 0 1 1 2 2 2 2 3 3 3 3 3 3
16 17 18 16 13 15 16 15 14 13 13 13 12 12 11 9 8 7 6 6 6 7 7 7 7 6 5 4 5 5 4 2 1 0 1 0 0 0 1 1 2 2 3 3 3 3 3 4 3
15 17 17 15 14 14 16 15 14 14 13 13 12 12 11 10 8 7 7 7 7 8 8 8 7 7 5 4 4 4 3 1 1 0 0 1 0 0 0 1 1 2 2 3 3 3 4 3 3
16 17 17 17 14 14 16 18 15 14 13 12 12 12 11 10 9 8 8 8 7 8 8 8 8 7 5 3 3 4 2 2 1 1 1 1 1 0 0 1 1 1 2 3 3 3 4 4 4
16 14 14 14 17 19 16 24 17 15 14 13 13 12 12 11 9 9 8 8 8 8 8 9 9 7 5 2 4 5 4 3 2 2 1 1 1 0 0 0 0 1 1 2 3 2 3 3 4
15 13 14 15 17 19 19 22 19 15 16 15 13 12 12 11 10 9 9 8 8 9 10 10 8 7 3 4 5 4 4 2 2 1 2 4 4 3 2 1 1 1 1 1 2 2 2 3 3
12 14 15 15 17 23 18 21 22 20 17 15 14 13 12 11 11 9 8 8 8 9 10 10 8 7 5 3 3 3 3 2 3 4 4 5 5 5 4 4 5 4 5 5 5 5 4 2 3
14 17 22 23 23 22 18 21 20 16 14 14 14 14 13 12 11 9 9 9 9 10 10 9 8 8 7 6 6 5 2 3 4 4 6 7 7 7 6 6 6 6 7 7 7 7 7 7 8
15 16 21 27 24 21 18 21 18 14 13 13 13 14 13 13 11 9 9 9 9 10 10 10 9 8 8 7 7 7 7 6 7 6 7 7 7 8 7 7 7 7 8 8 8 8 8 8 8
16 17 15 19 24 22 20 18 16 14 14 14 14 14 15 14 12 10 9 9 9 9 9 10 9 9 8 8 8 8 8 8 9 10 9 9 9 9 10 9 9 9 9 9 9 10 10 10 10
15 14 19 19 26 25 21 20 20 17 16 15 15 16 15 14 13 12 11 10 10 9 9 10 10 10 10 9 9 9 9 10 10 10 11 11 11 10 10 10 10 11 11 11 10 10 10 11 10
17 17 16 17 18 22 23 21 17 16 15 15 15 15 15 15 14 13 12 11 10 10 10 10 10 10 10 10 10 10 10 10 11 11 12 12 12 11 11 11 11 11 11 11 12 12 12 12 12
16 17 17 21 20 19 19 21 14 14 14 14 15 15 15 15 14 13 13 12 11 11 11 11 10 11 10 10 10 10 10 10 11 11 11 11 11 11 12 12 11 11 12 12 13 13 13 13 14